Flag for Germany Weather past 2 weeks in Mörfelden-Walldorf, Hesse, Germany

Now
54 °F

Sunny.


Feels Like: 53 °F
Forecast: 40 / 53 °F
Wind: 3 mph from Southwest

Location: Frankfurt-M-Flughafen Airport


UV Index: 3 (Moderate)

Visibility: 10 mi


Pressure: 30.27 "Hg

Humidity: 38%

Dew point: 28 °F

Location of Mörfelden-WalldorfLocation

Historic Weather in Mörfelden-Walldorf

°F

Mörfelden-Walldorf temperature yesterday

Maximum temperature yesterday: 57 °F (at 4:20 PM)
Minimum temperature yesterday: 32 °F (at 5:20 AM)
Average temperature yesterday: 47 °F

Past Weeks' High & Low Weather Summary

 TemperatureHumidityPressure
High73 °F (Apr 2, 4:20 PM)100% (Apr 5, 12:50 AM)30.42 "Hg (Apr 5, 12:50 AM)
Low32 °F (Apr 16, 5:20 AM)31% (Apr 2, 4:50 PM)29.65 "Hg (Apr 3, 12:50 AM)
Average55 °F61%30.04 "Hg
* Reported Apr 2 10:20 AM — Apr 17 10:50 AM, Mörfelden-Walldorf, Weather by CustomWeather, © 2014

Note: Actual official high and low records may vary slightly from our data, if they occured in-between our weather recording intervals... More about our weather records

Advertising

Historic Weather Conditions — Data for Previous 24 hours

 ConditionsComfort  
Time TempWeatherWind HumidityBarometerVisibility
10:50 AM
Apr 17
54 °FSunny.2 mph41%30.27 "Hg10 mi
10:20 AM50 °FSunny.3 mph43%30.27 "Hg10 mi
9:20 AM46 °FPassing clouds.5 mph53%30.30 "HgN/A
8:50 AM45 °FSunny.6 mph57%30.30 "Hg10 mi
8:20 AM41 °FSunny.8 mph66%30.30 "Hg10 mi
7:50 AM41 °FSunny.8 mph66%30.30 "Hg10 mi
7:20 AM39 °FClear.8 mph70%30.30 "Hg10 mi
6:50 AM36 °FClear.6 mph81%30.30 "Hg10 mi
6:20 AM36 °FClear.6 mph81%30.30 "Hg10 mi
5:50 AM36 °FClear.7 mph81%30.30 "Hg10 mi
5:20 AM36 °FClear.6 mph81%30.30 "Hg10 mi
4:50 AM36 °FClear.6 mph81%30.33 "Hg10 mi
4:20 AM36 °FClear.7 mph81%30.33 "Hg10 mi
3:50 AM36 °FClear.6 mph81%30.33 "Hg10 mi
3:20 AM37 °FClear.7 mph81%30.33 "Hg10 mi
2:50 AM37 °FPassing clouds.5 mph75%30.33 "HgN/A
2:20 AM37 °FClear.6 mph75%30.36 "Hg10 mi
1:50 AM37 °FClear.5 mph75%30.36 "Hg10 mi
1:20 AM41 °FClear.5 mph66%30.36 "Hg10 mi
12:50 AM39 °FClear.7 mph70%30.36 "Hg10 mi
12:20 AM41 °FClear.7 mph66%30.36 "Hg10 mi
11:50 PM
Apr 16
43 °FClear.7 mph66%30.36 "Hg10 mi
11:20 PM43 °FClear.5 mph66%30.36 "Hg10 mi
10:50 PM45 °FClear.5 mph61%30.36 "Hg10 mi
10:20 PM46 °FClear.5 mph53%30.36 "Hg10 mi
9:50 PM48 °FClear.9 mph50%30.36 "Hg10 mi
9:20 PM50 °FClear.9 mph47%30.36 "Hg10 mi
8:50 PM52 °FSunny.9 mph44%30.36 "Hg10 mi
8:20 PM54 °FSunny.8 mph38%30.36 "Hg10 mi
7:50 PM55 °FSunny.8 mph36%30.36 "Hg10 mi
7:20 PM55 °FSunny.9 mph36%30.36 "Hg10 mi
6:50 PM57 °FPassing clouds.8 mph36%30.33 "HgN/A
6:20 PM57 °FSunny.7 mph33%30.36 "Hg10 mi
5:50 PM57 °FSunny.7 mph36%30.36 "Hg10 mi
5:20 PM57 °FSunny.6 mph33%30.36 "Hg10 mi
4:50 PM57 °FSunny.8 mph33%30.36 "Hg10 mi
4:20 PM57 °FPassing clouds.7 mph36%30.36 "HgN/A
3:50 PM55 °FPassing clouds.7 mph36%30.39 "HgN/A
3:20 PM55 °FPassing clouds.9 mph36%30.39 "HgN/A
2:50 PM55 °FSunny.14 mph38%30.39 "Hg10 mi
2:20 PM54 °FSunny.9 mph38%30.39 "Hg10 mi
1:50 PM54 °FPassing clouds.6 mph41%30.39 "HgN/A
1:20 PM54 °FSunny.9 mph41%30.42 "Hg10 mi
12:50 PM55 °FPassing clouds.9 mph41%30.42 "HgN/A
12:20 PM52 °FScattered clouds.5 mph44%30.42 "HgN/A
11:50 AM50 °FPassing clouds.3 mph54%30.42 "HgN/A
11:20 AM50 °FPassing clouds.5 mph50%30.42 "HgN/A
Weather by CustomWeather, © 2014

See weather overview